Retour au catalogue

STARLINK-3822

ActifCommunicationsVLEO
NORAD 52287·PAYLOAD·🇺🇸 United States

Lancé Apr 21, 2022 depuis Cape Canaveral Space Force Station

Loading…

Prochains Passages (prochaines 24 heures)

TLE

FraisSource: CelesTrak SupGP

Époque: Sep 15, 2026, 01:13 UTC

1 52287C 22041AC  26258.05118056  .00051009  00000+0  16399-2 0  2584
2 52287  53.1595 326.8255 0000978  69.8492 223.2516 15.31685130    12

Suivez STARLINK-3822 en temps réel avec AllMySat

Download on the App Store